Probability
0 0 0 0 0 0 0 0 0 0 0 0 0 0 0 0 0 0 0 0 0 0 0 0 0 0 0 0 0 0 0 0 0 0 0 0 0 0 0 0 0 0 0 0
0 0 0 0 0 0 0 0 0 0 0 0 0 0 0 0 0 0 0 0 0 0 0 0 0 0 0 0 0 0 0 0 0 0 0 0 0 0 0 0 0 0 0 0
0 0 0 0 0 0 0 0 0 0 0 0 0 0 0 0 0 0 0 0 0 0 0 0 0 0 0 0 0 0 0 0 0 0 0 0 0 0 0 0 0 0 0 0
0 0 0 0 0 0 0 0 0 0 0 0 0 0 0 0 0 0 0 0 0 0 0 0 0 0 0 0 0 0 0 0 0 0 0 0 0 0 0 0 0 0 0 0
0 0 0 0 0 0 0 0 0 0 0 0 0 0 0 0 0 0 0 0 0 0 0 0 0 0 0 0 0 0 0 0 0 0 0 0 0 0 0 0 0 0 0 0
0 0 0 0 0 0 0 0 0 0 0 0 0 0 0 0 0 0 0 0 0 0 0 0 0 0 0 0 0 0 0 0 0 0 0 0 0 0 0 0 0 0 0 0
0 0 0 0 0 0 0 0 0 0 0 0 0 0 0 0 0 0 0 0 0 0 0 0 0 0 0 0 0 0 0 0 0 0 0 0 0 0 0 0 0 0 0 0
0 0 0 0 0 0 0 0 0 0 0 0 0 0 0 0 0 0 0 0 0 0 0 0 0 0 0 0 0 0 0 0 0 0 0 0 0 0 0 0 0 0 0 0
0 0 0 0 0 0 0 0 0 0 0 0 0 0 0 0 0 0 0 0 0 0 0 0 0 0 0 0 0 0 0 0 0 0 0 0 0 0 0 0 0 0 0 0
0 0 0 0 0 0 0 0 0 0 0 0 0 0 0 0 0 0 0 0 0 0 0 0 0 0 0 0 0 0 0 0 0 0 0 0 0 0 0 0 0 0 0 0
0 0 0 0 0 0 0 0 0 0 0 0 0 0 0 0 0 0 0 0 0 0 0 0 0 0 0 0 0 0 0 0 0 0 0 0 0 0 0 0 0 0 0 0
0 0 0 0 0 0 0 0 0 0 0 0 0 0 0 0 0 0 0 0 0 0 0 0 0 0 0 0 0 0 0 0 0 0 0 0 0 0 0 0 0 0 0 0
0 0 0 0 0 0 0 0 0 0 0 0 0 0 0 0 0 0 0 0 0 0 0 0 0 0 0 0 0 0 0 0 0 0 0 0 0 0 0 0 0 0 0 0
0 0 0 0 0 0 0 0 0 0 0 0 0 0 0 0 0 0 0 0 0 0 0 0 0 0 0 0 0 0 0 0 0 0 0 0 0 0 0 0 0 0 0 0
0 0 0 0 0 0 0 0 0 0 0 0 0 0 0 0 0 0 0 0 0 0 0 0 0 0 0 0 0 0 0 0 0 0 0 0 0 0 0 0 0 0 0 0
0 0 0 0 0 0 0 0 0 0 0 0 0 0 0 0 0 0 0 0 0 0 0 0 0 0 0 0 0 0 0 0 0 0 0 0 0 0 0 0 0 0 0 0
0 0 0 0 0 0 0 0 0 0 0 0 0 0 0 0 0 0 0 0 0 0 0 0 0 0 0 0 0 0 0 0 0 0 0 0 0 0 0 0 0 0 0 0
0 0 0 0 0 0 0 0 0 0 0 0 0 0 0 0 0 0 0 0 0 0 0 0 0 0 0 0 0 0 0 0 0 0 0 0 0 0 0 0 0 0 0 0
0 0 0 0 0 0 0 0 0 0 0 0 0 0 0 0 0 0 0 0 0 0 0 0 0 0 0 0 0 0 0 0 0 0 0 0 0 0 0 0 0 0 0 0
0 0 0 0 0 0 0 0 0 0 0 0 0 0 0 0 0 0 0 0 0 0 0 0 0 0 0 0 0 0 0 0 0 0 0 0 0 0 0 0 0 0 0 0
0 0 0 0 0 0 0 0 0 0 0 0 0 0 0 0 0 0 0 0 0 0 0 0 0 0 0 0 0 0 0 0 0 0 0 0 0 0 0 0 0 0 0 0
0 0 0 0 0 0 0 0 0 0 0 0 0 0 0 0 0 0 0 0 0 0 0 0 0 0 0 0 0 0 0 0 0 0 0 0 0 0 0 0 0 0 0 0
0 0 0 0 0 0 0 0 0 0 0 0 0 0 0 0 0 0 0 0 0 0 0 0 0 0 0 0 0 0 0 0 0 0 0 0 0 0 0 0 0 0 0 0
0 0 0 0 0 0 0 0 0 0 0 0 0 0 0 0 0 0 0 0 0 0 0 0 0 0 0 0 0 0 0 0 0 0 0 0 0 0 0 0 0 0 0 0
0 0 0 0 0 0 0 0 0 0 0 0 0 0 0 0 0 0 0 0 0 0 0 0 0 0 0 0 0 0 0 0 0 0 0 0 0 0 0 0 0 0 0 0
0 0 0 0 0 0 0 0 0 0 0 0 0 0 0 0 0 0 0 0 0 0 0 0 0 0 0 0 0 0 0 0 0 0 0 0 0 0 0 0 0 0 0 0
0 0 0 0 0 0 0 0 0 0 0 0 0 0 0 0 0 0 0 0 0 0 0 0 0 0 0 0 0 0 0 0 0 0 0 0 0 0 0 0 0 0 0 0
Wind_Speed
5 5 6 6 7 7 5 3 5 5 7 7 7 8 9 9 9 10 10 10 10 9 9 9 9 9 9 9 8 8 9 9 8 8 8 7 7 7 7 7 6 5 5 5
5 5 8 10 11 8 6 5 5 7 5 5 8 7 8 8 9 10 10 10 10 9 9 9 8 8 8 7 7 7 8 8 7 7 7 7 6 6 6 5 5 4 4 4
1 2 4 7 7 5 5 5 2 2 3 8 8 7 7 7 8 9 10 10 9 9 8 7 7 7 7 6 6 7 7 6 6 6 6 5 5 5 5 4 3 3 3 3
3 4 3 1 2 4 6 6 5 5 6 8 9 8 7 6 8 9 9 9 9 8 8 7 6 6 6 6 6 6 5 5 4 5 5 4 4 4 3 2 2 2 2 3
4 3 1 1 0 0 2 3 3 6 9 10 10 9 7 6 8 9 8 8 8 8 7 6 6 6 6 5 5 5 4 3 3 3 3 3 3 2 2 2 2 2 2 3
4 4 2 2 3 0 4 1 2 6 9 8 5 4 4 6 9 10 9 8 8 7 7 7 5 5 6 5 4 3 2 2 2 2 2 2 1 1 2 1 2 2 3 3
4 2 2 2 3 1 1 3 4 6 7 6 4 4 8 9 9 9 9 8 8 7 6 5 4 5 5 4 2 1 2 2 2 2 1 1 1 1 2 2 3 3 3 3
3 2 3 4 2 2 3 2 5 6 6 8 10 11 10 10 9 9 9 8 7 7 5 3 3 4 4 2 1 1 2 2 2 1 1 1 1 1 1 2 2 3 3 3
4 4 3 2 1 2 4 5 5 6 8 12 11 10 10 9 8 8 8 6 5 6 5 3 2 3 3 0 1 2 2 1 1 2 2 1 0 1 1 1 1 1 2 2
3 1 2 3 3 4 4 6 7 9 10 11 11 11 10 9 7 6 6 5 4 5 4 2 1 1 1 0 1 1 0 1 1 1 2 2 1 0 0 0 0 1 1 2
3 2 3 3 3 5 8 10 11 10 9 10 12 11 9 8 7 6 5 4 4 4 3 2 1 0 1 0 1 0 1 1 2 2 2 2 2 1 0 1 2 1 1 1
6 7 6 5 5 7 9 9 10 11 9 8 9 10 8 7 5 5 5 4 3 3 2 1 0 1 2 1 1 1 1 2 1 1 1 1 1 2 3 2 2 1 2 2
4 5 5 8 7 6 8 8 9 10 10 9 8 8 8 5 4 4 4 4 3 2 2 1 1 2 2 1 1 2 2 2 2 1 1 0 1 1 2 3 4 3 3 4
7 9 7 5 6 7 10 10 10 9 8 8 7 7 7 5 4 5 4 3 2 2 1 1 1 2 3 2 1 1 2 2 1 1 0 0 1 1 1 2 3 3 4 5
4 5 9 9 10 10 10 11 11 9 8 7 6 7 7 6 5 3 2 2 2 1 0 0 1 3 3 2 1 1 1 1 0 0 1 1 1 1 1 2 2 2 3 4
7 10 13 13 13 11 11 11 11 8 7 6 6 6 6 5 4 3 2 3 3 1 0 0 2 3 3 1 1 1 1 1 1 2 2 2 2 2 2 2 2 2 3 4
12 10 10 12 12 11 9 9 10 9 7 7 7 6 6 5 4 2 1 1 1 1 0 1 2 3 2 1 1 0 0 1 2 2 2 2 2 2 1 1 2 2 3 4
10 12 13 15 14 12 10 10 9 9 8 7 7 7 6 5 4 3 1 1 1 1 1 2 2 3 2 1 0 0 1 1 1 2 2 2 2 2 2 2 2 3 3 4
9 11 11 12 12 12 11 10 9 8 7 8 7 6 5 4 3 2 1 2 1 1 2 3 3 2 2 2 1 1 1 2 2 2 2 3 3 2 2 2 2 2 3 3
9 11 12 11 10 10 10 9 9 8 7 7 7 5 4 3 2 2 2 1 2 3 2 2 2 2 3 3 1 1 2 3 3 3 3 3 3 2 2 2 2 2 3 3
12 12 13 12 11 10 10 11 10 8 7 7 7 6 4 3 2 3 2 1 2 2 1 1 1 2 3 2 1 2 2 3 3 3 3 3 3 2 2 2 2 2 2 3
12 12 12 12 11 10 8 9 9 9 7 6 5 5 4 3 2 2 2 2 2 1 1 0 1 3 2 1 2 2 3 4 3 3 3 3 3 2 2 1 1 2 2 2
10 11 12 12 12 10 9 8 9 8 8 7 6 6 5 4 3 3 2 2 1 1 1 1 2 1 2 2 2 3 3 4 3 3 3 2 2 2 1 1 1 1 1 2
10 10 11 10 10 10 9 7 7 6 7 6 6 6 5 3 2 2 2 2 3 3 1 1 0 2 4 2 2 3 3 3 3 3 3 2 2 2 1 1 1 1 1 2
10 10 10 12 11 9 8 8 7 5 5 3 3 4 3 3 3 3 3 3 3 3 1 1 1 3 3 2 2 2 2 2 3 3 3 2 2 2 1 1 1 0 1 1
9 9 9 9 8 7 7 7 5 4 4 3 2 2 2 2 2 2 2 3 3 3 2 1 2 2 2 2 2 2 2 3 3 3 3 2 2 2 2 1 2 1 1 1
9 7 6 6 5 6 7 7 6 6 6 5 4 3 3 3 3 3 3 2 2 2 2 2 2 2 3 3 2 2 2 2 2 2 2 2 2 2 2 2 1 1 1 1
Wind_Direction
67 65 79 60 37 41 63 108 141 149 145 158 151 140 134 128 122 117 112 107 102 98 93 87 82 78 76 74 71 74 76 73 71 70 72 72 72 71 70 69 72 69 68 60
65 69 77 57 29 31 42 41 84 106 97 112 117 114 121 128 129 125 120 114 109 105 100 96 92 89 84 79 75 78 79 77 75 73 71 69 69 67 66 62 57 56 52 46
92 303 50 34 359 22 49 32 41 100 122 130 124 124 128 130 125 121 119 115 112 107 103 100 97 98 95 91 87 84 83 81 78 78 74 67 70 66 60 50 44 39 28 25
83 58 64 291 14 79 82 50 46 85 105 111 108 95 83 101 116 117 117 116 111 107 102 96 93 92 93 91 89 88 86 84 82 82 78 69 65 57 41 31 25 7 356 353
91 87 84 286 17 114 103 62 58 109 111 109 112 95 72 80 100 106 107 107 105 107 106 100 97 98 97 88 89 90 88 84 83 89 84 70 56 36 17 14 1 346 343 353
95 111 197 266 322 318 113 97 138 130 131 130 122 113 113 107 104 103 101 103 106 105 102 99 96 98 96 91 87 86 92 87 83 89 88 74 42 15 6 11 358 356 12 16
92 108 274 308 315 57 118 240 146 137 137 129 108 118 125 117 108 107 106 104 104 102 99 103 108 103 99 96 94 103 98 85 73 64 72 72 32 15 12 25 31 27 25 17
111 106 256 327 29 139 190 114 112 117 117 113 112 113 115 115 113 112 108 104 104 102 96 95 108 108 107 108 104 88 80 66 43 14 357 58 47 13 30 45 44 29 15 4
163 193 253 340 46 69 117 112 114 118 122 124 121 120 118 115 114 111 110 107 105 110 106 93 105 120 124 165 86 89 75 38 358 356 358 2 340 331 24 47 48 16 3 347
99 62 44 53 62 62 80 103 110 119 124 124 121 122 118 116 114 109 107 110 112 113 110 99 95 117 162 189 111 108 55 328 333 336 334 344 344 334 62 355 355 344 341 330
110 138 98 54 79 99 96 101 104 104 109 118 121 121 121 119 116 113 110 106 114 122 126 132 119 309 291 274 134 114 320 315 326 326 319 334 350 354 276 241 223 234 269 282
197 191 161 161 139 124 117 118 119 115 106 110 119 120 118 116 116 117 116 113 115 123 137 163 232 288 297 281 186 192 286 301 301 304 310 329 358 9 22 24 357 261 241 260
161 132 119 123 121 114 116 120 119 117 122 119 114 119 118 115 119 122 125 133 148 169 188 212 258 287 299 300 206 208 242 270 283 292 297 331 29 41 8 357 6 3 340 325
124 112 108 123 128 120 118 115 109 105 109 114 116 116 113 111 119 132 150 171 177 177 194 214 261 294 305 313 273 250 259 272 264 269 268 84 84 71 54 15 357 349 347 354
114 117 129 122 116 116 119 119 116 113 113 110 116 122 124 127 139 156 166 156 138 136 151 246 301 307 322 335 307 274 265 259 236 110 104 97 95 83 61 32 11 351 349 350
103 105 119 125 130 131 130 130 129 131 130 126 129 134 138 138 141 146 153 150 146 172 227 328 312 309 322 348 348 328 305 252 135 114 104 98 89 78 58 38 20 6 2 353
127 134 137 140 143 144 143 143 142 141 139 139 144 139 128 121 119 131 153 164 171 193 243 291 295 308 319 309 269 254 3 77 109 106 110 104 86 74 62 50 29 12 2 2
156 156 156 154 152 148 142 140 141 142 145 146 139 133 136 145 165 193 200 142 113 41 327 299 298 309 316 310 262 195 146 131 121 118 112 100 91 81 72 60 39 26 9 4
133 139 142 146 148 147 145 146 147 146 143 140 142 150 160 172 183 189 165 153 177 262 297 326 335 339 324 318 333 165 154 137 118 108 106 104 94 81 76 66 49 34 20 12
134 138 140 140 140 141 144 145 143 142 145 144 143 146 159 183 183 166 153 193 231 235 268 293 318 320 320 319 335 155 149 138 129 120 110 106 101 93 81 68 54 40 26 17
142 143 144 146 145 145 147 146 146 149 150 148 153 167 180 185 163 149 150 251 284 275 264 275 305 310 311 319 22 119 126 126 126 128 125 118 110 104 93 74 56 38 23 14
146 146 148 147 145 146 149 148 149 149 149 154 160 160 159 170 162 155 201 222 260 245 155 316 298 298 309 32 88 113 118 119 120 123 124 124 123 120 111 93 59 36 24 18
146 147 148 151 151 149 146 149 152 152 157 165 168 172 179 185 171 166 231 242 220 181 163 266 283 326 74 77 95 114 121 124 128 131 132 134 136 136 130 109 67 40 25 19
143 146 147 145 139 140 149 160 157 160 165 170 178 178 168 165 192 212 208 210 181 170 179 256 228 98 90 85 96 109 116 123 127 129 130 131 135 137 136 125 90 51 34 33
143 143 142 144 149 158 160 153 147 151 154 163 179 182 175 173 182 194 181 190 186 170 183 235 159 122 105 102 106 116 126 138 142 140 140 142 146 148 150 149 141 102 57 42
144 150 155 160 159 155 151 149 150 156 156 163 185 187 177 170 166 152 163 180 182 178 179 181 157 135 127 124 120 124 129 135 139 141 149 150 156 158 161 167 163 153 127 88
138 139 140 139 143 149 152 156 159 166 170 171 186 192 179 170 165 171 177 180 183 186 185 179 171 164 156 149 139 134 133 138 143 146 152 158 164 173 179 175 170 163 160 166